Vorticity
nan nan nan nan nan nan nan nan nan nan nan nan nan nan nan nan nan nan nan nan nan nan nan nan nan nan nan nan nan nan nan nan nan nan nan nan nan nan nan nan nan nan nan nan nan nan nan nan nan nan nan nan nan nan nan nan nan nan nan nan nan nan nan nan nan nan nan nan nan
nan 10 10 11 11 12 10 9 7 6 7 9 9 9 10 11 10 9 7 8 7 7 9 8 4 1 0 5 11 11 10 7 7 10 11 12 12 11 12 10 8 8 9 11 15 17 12 10 14 15 12 9 8 8 9 8 9 10 10 12 16 17 19 20 17 17 18 20 nan
nan 10 11 10 9 10 11 9 4 3 8 12 11 10 10 11 10 8 7 5 5 8 11 8 4 4 6 11 11 9 7 6 8 11 13 12 10 10 10 8 7 10 12 13 13 11 7 10 16 15 12 6 5 8 9 9 10 12 14 20 21 18 16 16 16 18 20 21 nan
nan 11 10 7 5 10 15 9 3 6 13 15 11 11 12 11 9 7 5 5 9 11 9 5 6 8 9 8 5 6 6 7 10 13 14 10 9 8 8 8 10 11 12 11 9 8 8 14 20 16 10 5 9 11 11 6 7 13 16 20 18 15 15 14 15 16 15 14 nan
nan 11 10 6 5 12 14 8 6 11 16 15 11 10 10 9 7 6 6 8 9 5 1 4 10 9 5 2 4 8 10 12 15 16 12 8 9 8 7 8 11 12 12 10 9 9 11 20 23 15 10 11 12 9 4 3 8 12 14 14 13 14 15 15 17 15 12 10 nan
nan 8 9 6 8 13 13 7 8 14 16 12 7 7 8 7 4 3 4 6 4 2 5 12 13 8 4 5 10 12 14 15 14 11 8 10 9 6 6 9 11 12 11 8 8 11 15 23 22 14 10 10 8 5 3 8 12 11 11 10 11 13 12 15 20 19 14 8 nan
nan 8 8 8 10 11 9 8 12 13 15 11 5 5 5 4 2 2 7 10 8 9 12 13 7 5 5 8 11 12 12 12 9 8 11 12 7 5 7 10 10 10 10 9 11 14 17 22 20 12 9 10 9 5 6 9 9 8 8 10 12 11 9 14 20 20 19 14 nan
nan 8 8 9 9 8 7 10 14 14 14 9 3 3 5 5 6 9 13 14 11 9 11 6 0 3 6 10 10 11 11 10 10 10 12 9 6 7 9 10 10 10 10 11 11 11 16 22 17 11 8 10 8 4 2 4 7 8 9 13 14 10 8 9 9 11 14 21 nan
nan 7 8 9 9 8 8 11 12 12 11 7 4 5 7 8 10 13 16 14 8 6 8 4 1 5 9 11 12 13 13 11 10 10 10 9 8 9 11 11 10 10 12 11 10 11 18 22 15 9 6 5 2 1 0 5 9 11 14 17 12 8 6 5 3 4 8 16 nan
nan 8 10 9 7 8 10 11 12 12 12 9 7 8 9 10 12 13 14 9 4 4 6 5 5 8 11 14 15 14 12 11 9 9 10 10 9 9 12 10 8 10 11 11 12 15 21 19 10 5 3 1 0 3 6 9 10 12 17 14 5 3 6 8 8 9 11 11 nan
nan 10 11 8 6 9 11 13 14 13 11 8 7 9 10 11 11 11 9 5 3 4 8 8 9 11 14 16 13 11 11 9 7 8 10 11 9 9 11 9 8 9 10 12 15 18 19 12 5 2 2 2 8 12 12 10 11 12 14 8 3 6 9 10 13 15 14 10 nan
nan 10 10 8 8 10 12 15 14 11 8 7 8 10 12 10 8 8 7 5 7 10 12 10 11 13 16 14 9 10 9 7 7 10 12 11 9 9 9 9 9 10 11 14 17 16 11 5 4 4 4 9 15 12 8 8 11 12 11 8 8 10 9 9 13 15 12 9 nan
nan 10 9 8 9 11 13 15 14 10 7 6 10 11 11 8 7 8 8 8 12 14 12 10 13 15 14 10 9 8 8 8 9 11 10 10 8 8 9 10 9 11 14 16 14 10 6 4 5 8 9 12 11 8 7 10 12 12 11 10 10 10 8 9 11 11 9 10 nan
nan 9 9 8 10 13 13 14 14 10 5 7 11 11 11 10 9 9 8 8 10 13 13 13 14 12 8 7 8 7 8 9 9 10 9 9 8 8 10 10 10 12 14 12 8 6 6 6 8 11 12 11 8 9 10 13 12 11 11 10 10 10 10 10 10 11 10 12 nan
nan 9 9 10 12 13 11 14 14 9 5 8 10 10 12 11 9 8 6 7 12 15 14 12 11 8 7 8 9 9 11 11 10 11 10 9 8 8 10 10 10 11 11 8 8 7 7 7 10 13 13 11 10 11 12 13 12 11 10 9 10 10 10 10 11 11 11 12 nan
nan 9 9 10 11 11 11 14 13 7 5 7 8 9 12 11 8 6 5 10 15 14 9 8 11 11 9 9 10 12 13 13 12 12 11 10 9 9 10 10 10 9 8 9 10 10 8 9 12 13 14 13 12 12 12 12 12 11 10 10 10 10 10 10 11 11 11 12 nan
nan 9 9 9 9 10 11 12 10 6 3 4 8 10 11 11 7 5 5 11 13 9 6 9 13 12 10 9 11 13 14 12 11 11 10 9 8 9 9 9 9 9 9 11 11 10 8 8 12 15 17 16 12 11 11 12 12 11 10 11 11 11 11 11 11 11 11 11 nan
nan 9 8 8 8 9 9 10 9 6 4 7 11 11 9 7 6 6 6 9 9 8 8 12 14 12 9 9 12 13 12 10 9 9 9 8 9 9 9 9 9 10 10 11 11 9 7 7 12 19 22 19 12 11 11 12 11 10 11 11 11 11 11 11 11 12 10 10 nan
nan 8 8 8 9 9 9 9 9 8 9 11 11 9 6 4 6 8 8 8 9 10 12 13 13 11 8 9 11 12 12 10 7 8 9 10 10 10 8 9 10 10 11 12 11 9 8 8 12 18 23 19 11 10 10 11 11 10 11 12 11 11 11 11 11 11 10 9 nan
nan 8 9 9 9 9 9 9 10 10 10 10 9 8 6 5 7 8 9 10 10 11 12 13 12 10 8 9 10 12 15 12 7 9 11 11 10 9 8 9 11 11 12 12 11 9 8 7 10 18 23 19 11 9 10 11 11 11 13 13 10 10 11 12 11 11 10 10 nan
nan 9 9 9 9 9 9 9 9 9 10 9 9 8 7 7 8 9 10 11 11 12 12 12 11 10 10 10 11 13 16 12 7 9 11 11 9 10 10 11 11 12 11 11 10 8 7 7 13 22 27 20 10 9 10 11 10 10 12 12 9 9 10 12 11 11 11 11 nan
nan 9 9 10 9 9 9 9 9 9 10 10 9 8 7 8 8 9 10 12 12 12 12 12 12 11 11 11 11 12 14 10 7 9 11 10 9 9 11 12 11 11 11 12 11 8 7 11 23 33 33 20 8 8 9 9 9 9 9 9 9 10 11 12 12 11 11 11 nan
nan 10 12 11 8 8 9 10 10 9 10 9 8 8 7 8 9 9 11 12 12 11 14 14 11 10 10 11 11 10 10 9 8 9 10 10 9 9 12 13 12 12 14 14 8 5 8 19 33 39 32 15 7 7 7 9 9 9 8 8 10 11 11 11 11 11 10 10 nan
nan 11 13 9 5 8 9 10 9 9 9 9 8 8 8 8 9 10 10 11 11 11 15 13 9 9 11 12 10 9 9 9 9 9 9 10 10 10 15 16 14 14 16 8 -5 -6 5 25 39 35 22 9 6 7 6 7 8 8 8 8 9 10 10 10 10 11 10 11 nan
nan 10 11 8 7 9 9 9 9 9 9 9 9 8 8 9 10 10 9 10 11 11 12 11 12 13 13 11 9 9 9 10 10 10 9 10 10 12 17 17 15 15 11 -7 -19 -13 3 29 43 33 17 7 7 7 6 6 6 7 8 8 9 9 8 8 10 10 11 11 nan
nan 10 9 9 9 8 8 9 9 9 9 9 9 9 9 10 10 8 9 11 11 12 12 13 13 13 13 10 7 8 11 11 9 9 10 8 7 12 17 18 17 13 1 -17 -18 -7 3 24 40 35 23 12 9 8 7 5 5 7 8 9 9 8 8 8 8 10 12 11 nan
nan 9 9 8 8 8 9 10 9 9 9 9 9 9 9 10 9 7 9 11 12 14 15 15 12 13 14 10 5 7 11 11 9 9 9 7 7 10 16 19 17 8 -9 -20 -11 -0 5 19 32 31 27 19 12 10 8 6 6 8 9 9 8 7 8 9 9 10 12 11 nan
nan 8 8 8 8 9 10 10 9 9 9 9 9 9 8 8 8 9 10 11 13 16 17 15 13 15 13 6 3 6 8 11 12 10 7 5 7 10 15 16 11 0 -14 -14 -2 4 5 18 30 28 25 23 17 11 8 8 9 10 10 9 7 7 9 12 11 10 10 13 nan
nan 8 8 8 9 9 9 9 9 9 10 11 10 9 9 9 9 10 10 11 13 16 17 14 12 9 5 2 4 7 9 12 13 9 5 4 7 11 11 12 9 -1 -10 -6 3 5 6 19 31 28 22 23 23 15 10 9 9 10 10 8 6 7 10 12 11 9 9 12 nan
nan 8 8 8 9 9 9 9 9 10 12 11 8 8 9 9 9 10 10 11 14 15 14 10 6 3 2 6 9 9 9 10 9 6 4 5 8 10 9 12 11 2 -7 -5 3 6 8 22 34 30 22 21 23 17 12 8 9 10 10 7 5 8 11 11 9 10 11 12 nan
nan 8 8 8 8 8 8 8 8 9 11 9 7 8 9 8 9 10 11 12 12 11 9 7 5 5 7 10 9 8 8 9 8 6 5 6 7 8 9 12 11 4 -7 -5 3 6 13 31 40 31 22 21 23 17 11 8 10 10 9 6 7 10 14 14 10 8 8 12 nan
nan 8 9 9 8 8 8 8 8 8 8 8 9 9 8 8 9 10 11 11 10 9 9 9 9 9 9 10 9 8 8 8 7 7 6 6 7 8 10 14 12 3 -8 -5 3 7 20 44 47 31 19 20 21 15 11 11 11 10 8 6 8 11 16 16 10 7 8 12 nan
nan 8 9 9 8 8 8 8 8 8 8 9 10 9 8 9 9 10 11 11 10 10 11 11 10 10 9 9 8 8 10 9 7 6 6 8 8 9 13 18 13 -2 -11 -4 3 7 25 54 50 26 15 19 20 14 11 13 13 10 7 7 8 9 11 13 14 12 11 13 nan
nan 8 9 9 9 9 8 8 8 8 8 9 9 8 8 8 8 10 11 11 10 10 11 11 11 11 9 8 8 8 10 9 6 6 7 9 9 10 14 19 9 -10 -12 -1 4 6 21 51 46 20 13 21 20 13 9 12 12 9 7 7 8 9 10 12 15 16 14 13 nan
nan 9 9 9 9 9 8 8 8 8 8 9 9 9 9 9 9 10 9 9 9 10 11 11 11 11 9 8 8 8 8 8 8 7 8 9 9 9 11 13 4 -8 -6 3 5 5 13 37 40 19 18 23 20 12 8 9 9 6 6 8 8 8 11 15 18 18 14 10 nan
nan 9 9 9 9 9 9 9 9 8 9 9 9 9 10 10 10 10 8 8 9 9 10 11 11 10 9 9 9 8 7 8 8 9 9 9 9 10 10 10 5 -1 -1 3 5 5 7 25 35 25 25 25 18 11 10 10 7 4 5 7 7 7 11 16 18 17 15 9 nan
nan 9 9 10 10 9 10 9 9 9 9 9 10 10 11 12 12 11 9 9 8 8 9 10 11 10 9 9 9 8 7 8 9 9 9 9 9 10 10 10 8 4 1 1 4 6 6 15 29 30 33 25 15 12 11 11 8 5 5 6 6 7 12 13 11 12 12 10 nan
nan 9 10 10 10 10 10 9 9 9 9 11 11 12 12 14 13 11 10 9 8 7 8 9 10 10 9 9 10 8 8 8 8 9 9 9 10 9 10 11 10 7 1 -1 3 7 8 10 20 29 38 28 15 14 13 10 8 8 8 8 6 6 12 13 7 5 3 5 nan
nan 10 10 10 10 10 10 9 9 10 11 12 12 12 13 14 13 10 9 9 7 7 8 8 9 10 9 11 12 9 8 8 8 9 9 9 8 9 11 13 10 7 0 -1 3 9 11 10 13 23 38 34 19 17 13 9 7 9 10 11 9 7 10 12 9 4 -1 -3 nan
nan 10 10 10 10 10 10 9 11 12 12 11 11 12 13 13 11 9 10 9 7 9 10 8 7 9 10 12 13 10 9 8 8 8 8 8 8 9 13 13 9 6 3 1 5 9 13 12 10 18 37 37 23 20 15 10 7 8 11 12 11 10 9 10 10 6 1 -4 nan
nan nan nan nan nan nan nan nan nan nan nan nan nan nan nan nan nan nan nan nan nan nan nan nan nan nan nan nan nan nan nan nan nan nan nan nan nan nan nan nan nan nan nan nan nan nan nan nan nan nan nan nan nan nan nan nan nan nan nan nan nan nan nan nan nan nan nan nan nan
CAPE
nan nan nan nan 0 0 nan nan 2 2 0 nan 0 1 1 3 3 3 3 3 2 1 1 1 3 6 6 9 13 13 16 16 13 18 18 14 17 29 29 45 33 30 30 28 31 31 30 34 25 25 21 29 35 33 33 25 24 29 29 31 27 31 31 35 34 34 39 34 28
nan nan nan 1 1 1 nan 0 0 0 0 0 1 2 2 4 4 3 3 2 1 1 1 1 3 5 5 10 13 13 12 13 12 13 13 14 18 35 35 42 32 29 29 26 24 24 26 30 25 25 24 27 33 35 35 26 23 38 38 45 31 31 31 31 38 38 39 34 32
nan nan nan nan nan nan nan nan nan nan nan 0 1 3 3 6 6 5 5 4 2 0 0 0 3 6 6 10 10 10 8 9 12 13 13 13 24 49 49 38 30 33 33 26 20 20 22 26 27 27 32 28 30 29 29 36 37 44 44 53 44 40 40 38 42 42 38 35 38
nan nan nan nan nan nan nan 0 nan nan 0 0 1 4 4 7 8 8 8 7 2 0 0 0 7 9 9 8 5 5 4 11 14 18 18 17 35 48 48 35 34 31 31 26 25 25 23 25 30 30 30 34 39 32 32 34 40 44 44 51 55 56 56 56 49 49 32 34 35
nan nan nan nan nan nan 0 0 0 0 0 1 2 3 3 8 10 11 11 8 2 0 0 1 8 8 8 4 2 2 2 9 29 15 15 20 36 46 46 31 31 29 29 27 27 27 24 25 28 28 37 36 31 29 29 34 40 38 38 44 52 63 63 70 66 66 38 25 31
nan nan nan 0 0 0 0 1 1 1 1 2 4 5 5 8 11 10 10 8 3 1 1 2 3 4 4 2 1 1 2 8 12 13 13 17 37 47 47 29 26 23 23 25 26 26 25 29 28 28 34 31 19 26 26 37 39 36 36 39 42 60 60 71 92 92 55 32 46
nan nan nan 0 2 2 1 1 1 1 1 3 6 7 7 12 12 12 12 9 4 2 2 2 1 1 1 1 1 1 3 8 9 11 11 19 44 34 34 24 24 23 23 24 28 28 28 31 28 28 35 28 24 25 25 30 37 33 33 34 40 53 53 60 103 103 93 61 55
nan 0 0 3 5 5 3 3 1 1 1 2 7 10 10 15 17 12 12 9 5 3 3 2 0 0 0 1 2 2 3 7 10 11 11 22 45 37 37 23 23 20 20 22 28 28 29 26 27 27 35 28 20 28 28 28 30 27 27 28 36 44 44 42 50 50 80 91 72
0 3 3 7 7 7 6 5 3 3 1 3 8 13 13 17 19 13 13 10 9 6 6 1 1 1 1 1 3 3 6 10 11 12 12 25 49 40 40 22 22 18 18 22 32 32 34 28 26 26 35 23 18 25 25 35 30 28 28 29 34 36 36 32 27 27 29 33 57
0 3 3 3 2 2 7 4 3 3 4 5 9 13 13 28 23 16 16 13 16 4 4 1 1 3 3 3 5 5 6 10 14 17 17 42 66 36 36 22 22 17 17 23 35 35 48 37 33 33 38 30 27 32 32 33 28 25 25 28 33 31 31 30 25 25 21 21 21
1 2 2 2 3 3 10 3 5 5 7 7 10 14 14 25 19 17 17 19 13 3 3 3 4 7 7 7 7 7 6 6 8 18 18 60 69 32 32 24 20 17 17 19 31 31 41 37 28 28 35 33 37 35 35 37 32 27 27 29 36 31 31 34 28 28 25 19 19
1 3 3 5 7 7 9 5 7 7 10 10 13 14 14 14 16 23 23 21 10 7 7 10 10 12 12 8 6 6 6 6 10 25 25 60 60 35 35 28 20 19 19 19 26 26 30 28 23 23 34 36 32 31 31 34 34 28 28 31 33 31 31 31 27 27 26 27 24
2 4 4 6 9 9 10 9 11 11 13 12 17 17 17 15 19 28 28 20 12 9 9 15 19 17 17 10 6 6 6 8 11 23 23 45 41 33 33 29 26 22 22 22 20 20 20 27 34 34 67 51 37 28 28 33 35 27 27 28 33 29 29 26 26 26 24 26 23
4 5 5 7 10 10 12 14 15 15 14 15 22 20 20 16 23 30 30 18 13 19 19 21 22 14 14 12 7 7 9 10 14 22 22 26 18 24 24 27 24 29 29 24 24 24 20 20 36 36 61 70 44 26 26 30 32 28 28 24 28 28 28 31 26 26 25 24 21
3 5 5 8 9 9 11 15 16 16 15 21 20 18 18 18 31 25 25 12 19 17 17 19 18 19 19 16 11 11 12 12 17 21 21 20 16 15 15 21 21 25 25 26 30 30 34 27 23 23 47 75 58 28 28 35 29 25 25 22 24 28 28 28 29 29 27 29 31
3 6 6 8 8 8 10 14 14 14 18 20 22 25 25 20 28 18 18 15 18 15 15 21 18 22 22 22 19 19 18 17 19 24 24 20 18 20 20 20 20 20 20 24 27 27 31 30 19 19 33 84 56 30 30 33 29 28 28 22 24 26 26 24 26 26 23 25 23
7 9 9 8 9 9 11 10 13 13 15 20 25 34 34 33 23 25 25 24 14 19 19 20 19 15 15 27 26 26 21 20 24 30 30 29 30 28 28 24 18 18 18 21 23 23 26 23 16 16 27 86 65 28 28 29 25 25 25 22 22 23 23 24 21 21 20 20 21
9 11 11 13 15 15 18 21 23 23 30 36 38 37 37 30 28 26 26 28 21 35 35 34 35 35 35 35 38 38 46 46 46 42 42 37 35 31 31 21 13 9 9 13 14 14 15 14 15 15 40 106 71 25 25 22 25 23 23 23 18 19 19 24 26 26 19 18 17
9 12 12 17 21 21 29 31 36 36 35 43 51 57 57 45 37 29 29 28 25 31 31 33 30 34 34 40 46 46 59 42 48 47 47 40 36 29 29 23 11 10 10 12 16 16 16 11 13 13 72 103 52 23 23 24 24 23 23 20 17 19 19 24 26 26 20 16 15
11 13 13 15 23 23 31 34 41 41 31 39 37 40 40 40 45 42 42 37 22 30 30 28 34 37 37 44 58 58 54 44 48 47 47 42 37 31 31 24 13 9 9 14 16 16 17 10 8 8 82 99 32 21 21 25 25 23 23 15 17 17 17 22 25 25 21 19 18
14 16 16 21 26 26 25 31 32 32 30 37 46 51 51 40 45 41 41 32 26 26 26 22 33 45 45 48 54 54 57 49 44 48 48 47 43 38 38 23 14 8 8 13 14 14 13 12 5 5 69 88 30 19 19 21 11 15 15 8 11 17 17 19 27 27 25 19 16
15 21 21 27 34 34 25 26 28 28 31 29 29 34 34 40 44 37 37 29 27 19 19 18 27 39 39 39 46 46 53 46 49 50 50 51 46 43 43 23 14 9 9 13 9 9 13 11 2 2 87 74 33 27 27 18 11 10 10 7 10 13 13 16 17 17 23 22 15
19 24 24 35 25 25 29 29 27 27 32 31 34 32 32 42 40 32 32 32 28 22 22 19 28 36 36 42 48 48 51 43 52 54 54 57 49 41 41 28 15 7 7 10 7 7 15 8 2 2 98 54 26 33 33 11 9 7 7 9 11 9 9 8 15 15 18 21 20
21 23 23 19 25 25 22 27 25 25 31 39 39 34 34 40 37 35 35 32 29 23 23 21 29 34 34 43 43 43 44 40 50 52 52 61 40 31 31 28 20 8 8 7 19 19 45 21 15 15 88 41 18 19 19 9 6 8 8 8 8 4 4 3 7 7 8 16 19
19 24 24 23 22 22 19 29 28 28 31 40 38 39 39 40 38 32 32 29 26 22 22 23 24 31 31 36 36 36 35 35 50 56 56 56 30 23 23 22 14 1 1 7 76 76 150 204 123 123 82 17 9 10 10 10 3 4 4 7 8 4 4 3 3 3 6 12 16
17 21 21 20 19 19 24 29 31 31 32 32 33 36 36 39 39 32 32 27 26 24 24 24 29 35 35 23 30 30 27 21 39 48 48 38 31 15 15 18 11 0 0 26 91 91 168 325 260 260 132 27 10 11 11 7 1 0 0 7 5 4 4 4 3 3 6 12 14
12 16 16 16 16 16 21 24 26 26 26 26 31 37 37 37 36 30 30 24 25 27 27 25 35 37 37 15 22 22 18 14 29 40 40 32 24 13 13 13 9 1 1 35 104 104 197 333 334 334 215 53 15 8 8 8 3 1 1 10 5 3 3 4 5 5 7 13 17
4 8 8 8 7 7 9 14 19 19 22 23 28 32 32 34 33 27 27 23 22 23 23 24 26 18 18 10 15 15 16 13 19 35 35 33 20 15 15 9 1 4 4 44 115 115 206 340 369 369 238 81 18 13 13 8 1 1 1 9 3 4 4 5 3 3 8 17 17
1 5 5 6 4 4 5 9 13 13 13 14 21 28 28 32 31 25 25 17 13 13 13 16 15 9 9 9 15 15 14 10 16 26 26 23 14 12 12 8 nan 3 3 51 117 117 210 342 355 355 220 101 10 2 2 0 0 0 0 2 3 3 3 3 3 3 12 23 18
1 4 4 5 4 4 3 7 12 12 11 10 18 26 26 29 29 17 17 11 6 7 7 15 12 9 9 11 17 17 14 8 13 18 18 18 12 10 10 7 nan 2 2 52 120 120 219 348 304 304 178 83 3 nan nan nan nan 1 1 4 3 3 3 2 9 9 19 32 19
2 4 4 4 3 3 3 6 9 9 8 8 19 23 23 23 19 9 9 4 2 6 6 9 9 8 8 11 14 14 16 7 9 12 12 13 15 10 10 4 nan 2 2 59 120 120 230 357 261 261 141 71 nan nan nan nan 0 4 4 9 6 6 6 2 10 10 25 42 21
2 4 4 3 2 2 4 6 8 8 9 10 15 16 16 16 11 4 4 1 1 1 1 2 5 6 6 9 12 12 13 9 11 12 12 9 7 5 5 3 nan 3 3 67 121 121 243 365 202 202 106 56 nan nan nan nan 1 7 7 13 7 6 6 2 7 7 35 50 23
3 4 4 3 3 3 6 8 10 10 11 12 13 16 16 15 13 10 10 5 1 0 0 0 3 5 5 6 8 8 10 14 17 22 22 12 5 5 5 2 nan 14 14 81 134 134 257 339 156 156 96 42 nan nan nan nan 4 9 9 8 8 5 5 3 11 11 49 47 23
3 3 3 5 5 5 8 11 14 14 12 12 14 17 17 18 18 17 17 8 0 nan nan nan 1 3 3 4 5 5 9 20 18 9 9 5 4 8 8 2 nan 37 37 82 146 146 257 289 134 134 111 45 0 nan nan 0 7 11 11 6 8 4 4 2 12 12 55 49 25
2 2 2 4 7 7 9 14 18 18 15 14 16 16 16 18 21 19 19 12 4 nan nan nan 0 2 2 3 3 3 6 15 10 8 8 3 3 10 10 1 0 43 43 79 146 146 248 319 169 169 123 50 0 nan nan 0 4 12 12 7 7 3 3 2 10 10 46 55 35
2 2 2 3 6 6 9 15 18 18 16 17 17 17 17 15 19 20 20 22 9 0 0 nan nan 0 0 2 3 3 7 7 9 9 9 6 2 7 7 2 nan 33 33 70 137 137 246 372 266 266 148 52 0 nan nan 1 3 9 9 12 7 2 2 nan 13 13 46 56 46
3 3 3 4 6 6 10 15 17 17 16 16 19 20 20 18 18 24 24 25 11 1 1 nan nan 0 0 1 2 2 3 5 11 11 11 9 6 7 7 3 nan 10 10 65 125 125 250 427 377 377 185 47 11 nan nan 1 4 10 10 18 13 7 7 6 36 36 53 57 51
4 4 4 5 8 8 13 15 14 14 15 17 18 20 20 21 17 24 24 31 15 5 5 0 nan nan nan 1 2 2 3 5 12 12 12 10 9 10 10 4 nan 1 1 59 119 119 251 413 436 436 263 58 24 0 0 nan 5 13 13 22 20 17 17 18 48 48 60 72 101
8 10 10 11 13 13 15 15 15 15 14 18 18 20 20 17 14 22 22 27 17 10 10 2 nan 0 0 1 1 1 3 2 14 15 15 9 11 18 18 6 0 2 2 51 106 106 259 377 452 452 340 115 39 4 4 nan 2 14 14 26 25 24 24 22 37 37 57 108 167
8 12 12 13 14 14 14 13 13 13 15 17 18 20 20 17 16 24 24 24 18 16 16 6 1 0 0 1 0 0 0 1 9 24 24 12 19 37 37 11 1 5 5 51 95 95 274 369 389 389 383 163 66 16 16 nan 0 5 5 23 28 29 29 24 29 29 49 94 189
4 9 9 10 13 13 13 12 11 11 15 17 17 19 19 18 24 22 22 15 15 14 14 8 2 0 0 1 nan nan 0 0 2 18 18 22 24 44 44 16 3 2 2 35 98 98 282 351 355 355 410 178 104 36 36 0 nan 2 2 14 29 30 30 28 27 27 38 75 121